| time (UTC) | temp F | wind direction | speed MPH | gust MPH | rain 1hr in | rain 24hr in | rain mn in | humidity % | barometer mb |
| 20260506013517 | 56 | 136 | 3.0 | 0.0 | 0.00 | 0.01 | 0.00 | 94 | 1005.9 |
| 20260506013017 | 56 | 174 | 2.0 | 0.0 | 0.00 | 0.01 | 0.00 | 94 | 1005.9 |
| 20260506012517 | 56 | 138 | 2.0 | 0.0 | 0.00 | 0.01 | 0.00 | 94 | 1006.0 |
| 20260506012017 | 56 | 129 | 2.0 | 0.0 | 0.01 | 0.01 | 0.00 | 94 | 1006.0 |
| 20260506011517 | 56 | 165 | 1.0 | 0.0 | 0.06 | 0.01 | 0.00 | 94 | 1006.0 |
| 20260506011017 | 56 | 141 | 1.0 | 0.0 | 0.00 | 0.01 | 0.00 | 94 | 1006.0 |
| 20260506010517 | 56 | 186 | 0.0 | 0.0 | 0.00 | 0.01 | 0.00 | 94 | 1006.0 |
| 20260506010017 | 56 | 262 | 1.0 | 0.0 | 0.00 | 0.01 | 0.00 | 94 | 1006.0 |
| 20260506005517 | 56 | 136 | 1.0 | 0.0 | 0.00 | 0.01 | 0.00 | 94 | 1006.1 |
| 20260506005017 | 56 | 84 | 0.0 | 0.0 | 0.00 | 0.01 | 0.00 | 94 | 1006.1 |
| 20260506004517 | 56 | 239 | 1.0 | 0.0 | 0.00 | 0.01 | 0.00 | 94 | 1006.1 |
| 20260506004017 | 56 | 190 | 2.0 | 0.0 | 0.00 | 0.01 | 0.00 | 95 | 1006.2 |
| 20260506003517 | 56 | 205 | 1.0 | 0.0 | 0.01 | 0.01 | 0.00 | 94 | 1006.3 |
| 20260506003017 | 56 | 139 | 2.0 | 0.0 | 0.00 | 0.01 | 0.00 | 95 | 1006.3 |
| 20260506002517 | 56 | 180 | 1.0 | 0.0 | 0.02 | 0.01 | 0.00 | 95 | 1006.4 |
| 20260506002017 | 56 | 110 | 0.0 | 0.0 | 0.00 | 0.00 | 0.00 | 95 | 1006.5 |
| 20260506001517 | 56 | 230 | 0.0 | 0.0 | 0.00 | 0.00 | 0.00 | 94 | 1006.5 |
| 20260506001017 | 56 | 85 | 1.0 | 0.0 | 0.01 | 0.00 | 0.00 | 94 | 1006.6 |
| 20260506000517 | 56 | 167 | 1.0 | 0.0 | 0.00 | 0.00 | 0.00 | 94 | 1006.7 |
| 20260506000017 | 57 | 226 | 1.0 | 0.0 | 0.00 | 0.58 | 0.00 | 94 | 1006.7 |
| 20260505235516 | 57 | 112 | 0.0 | 0.0 | 0.00 | 0.58 | 0.00 | 94 | 1006.8 |
| 20260505235017 | 56 | 128 | 1.0 | 0.0 | 0.00 | 0.58 | 0.00 | 94 | 1006.8 |
| 20260505234517 | 56 | 124 | 3.0 | 0.0 | 0.00 | 0.58 | 0.00 | 94 | 1006.8 |
| 20260505234017 | 56 | 111 | 2.0 | 0.0 | 0.00 | 0.58 | 0.00 | 94 | 1006.8 |
| 20260505233517 | 56 | 123 | 2.0 | 0.0 | 0.00 | 0.58 | 0.00 | 94 | 1006.8 |
| 20260505233017 | 56 | 206 | 2.0 | 0.0 | 0.00 | 0.58 | 0.00 | 94 | 1006.7 |
| 20260505232517 | 56 | 0 | 0.0 | 0.0 | 0.10 | 0.57 | 0.00 | 94 | 1006.8 |
| 20260505232017 | 56 | 115 | 1.0 | 0.0 | 0.11 | 0.57 | 0.00 | 94 | 1006.8 |
| 20260505231517 | 56 | 151 | 1.0 | 0.0 | 0.00 | 0.57 | 0.00 | 94 | 1006.7 |
| 20260505231017 | 56 | 269 | 1.0 | 0.0 | 0.01 | 0.57 | 0.00 | 94 | 1006.6 |
| 20260505230516 | 56 | 238 | 1.0 | 0.0 | 0.08 | 0.57 | 0.00 | 93 | 1006.7 |
| 20260505230017 | 56 | 212 | 1.0 | 0.0 | 0.14 | 0.56 | 0.00 | 93 | 1006.7 |
| 20260505225517 | 56 | 258 | 1.0 | 0.0 | 0.19 | 0.55 | 0.00 | 93 | 1006.7 |
| 20260505225017 | 56 | 203 | 0.0 | 0.0 | 0.09 | 0.54 | 0.00 | 93 | 1006.8 |
| 20260505224517 | 56 | 203 | 1.0 | 0.0 | 0.19 | 0.53 | 0.00 | 93 | 1006.8 |
| 20260505224016 | 56 | 260 | 2.0 | 0.0 | 0.36 | 0.51 | 0.00 | 93 | 1007.0 |
| 20260505223517 | 56 | 328 | 0.0 | 0.0 | 0.41 | 0.47 | 0.00 | 92 | 1007.0 |
| 20260505223017 | 56 | 279 | 2.0 | 0.0 | 0.27 | 0.43 | 0.00 | 92 | 1007.1 |
| 20260505222517 | 57 | 157 | 3.0 | 0.0 | 1.36 | 0.38 | 0.00 | 91 | 1007.2 |
| 20260505222017 | 57 | 153 | 1.0 | 0.0 | 0.52 | 0.34 | 0.00 | 92 | 1007.4 |
| 20260505221517 | 57 | 173 | 2.0 | 0.0 | 0.28 | 0.31 | 0.00 | 91 | 1007.5 |
| 20260505221017 | 57 | 184 | 3.0 | 0.0 | 0.30 | 0.28 | 0.00 | 92 | 1007.6 |
| 20260505220517 | 57 | 114 | 2.0 | 0.0 | 0.48 | 0.25 | 0.00 | 92 | 1007.7 |
| 20260505220016 | 57 | 154 | 1.0 | 0.0 | 0.19 | 0.22 | 0.00 | 92 | 1007.7 |
| 20260505215516 | 58 | 171 | 2.0 | 0.0 | 0.26 | 0.20 | 0.00 | 91 | 1007.8 |
| 20260505215017 | 58 | 158 | 3.0 | 0.0 | 0.20 | 0.18 | 0.00 | 91 | 1007.9 |
| 20260505214516 | 58 | 124 | 4.0 | 0.0 | 0.05 | 0.17 | 0.00 | 90 | 1007.9 |
| 20260505214016 | 58 | 171 | 5.0 | 0.0 | 0.19 | 0.16 | 0.00 | 89 | 1008.0 |
| 20260505213516 | 59 | 174 | 3.0 | 0.0 | 0.10 | 0.15 | 0.00 | 88 | 1008.1 |
| 20260505213016 | 58 | 196 | 1.0 | 0.0 | 0.07 | 0.14 | 0.00 | 88 | 1008.1 |
| 20260505212516 | 59 | 126 | 1.0 | 0.0 | 0.31 | 0.13 | 0.00 | 87 | 1008.1 |
| 20260505212017 | 59 | 294 | 1.0 | 0.0 | 0.35 | 0.10 | 0.00 | 86 | 1008.3 |
| 20260505211517 | 59 | 22 | 0.0 | 0.0 | 0.28 | 0.08 | 0.00 | 87 | 1008.4 |
| 20260505211016 | 59 | 319 | 0.0 | 0.0 | 0.13 | 0.05 | 0.00 | 86 | 1008.4 |
| 20260505210516 | 59 | 122 | 1.0 | 0.0 | 0.11 | 0.04 | 0.00 | 85 | 1008.4 |
| 20260505210016 | 60 | 283 | 0.0 | 0.0 | 0.10 | 0.03 | 0.00 | 85 | 1008.3 |
| 20260505205516 | 60 | 228 | 0.0 | 0.0 | 0.20 | 0.02 | 0.00 | 84 | 1008.4 |
| 20260505205017 | 60 | 289 | 0.0 | 0.0 | 0.14 | 0.01 | 0.00 | 82 | 1008.3 |
| 20260505204516 | 60 | 241 | 0.0 | 0.0 | 0.00 | 0.01 | 0.00 | 81 | 1008.3 |
| 20260505204016 | 60 | 279 | 1.0 | 0.0 | 0.03 | 0.01 | 0.00 | 78 | 1008.2 |
| 20260505203516 | 61 | 295 | 2.0 | 0.0 | 0.04 | 0.01 | 0.00 | 77 | 1008.3 |
| 20260505203016 | 61 | 279 | 1.0 | 0.0 | 0.04 | 0.01 | 0.00 | 76 | 1008.3 |
| 20260505202516 | 61 | 302 | 1.0 | 0.0 | 0.09 | 0.01 | 0.00 | 76 | 1008.3 |
| 20260505202016 | 61 | 299 | 1.0 | 0.0 | 0.00 | 0.00 | 0.00 | 75 | 1008.2 |
| 20260505201517 | 61 | 285 | 0.0 | 0.0 | 0.00 | 0.00 | 0.00 | 75 | 1008.0 |
| 20260505201016 | 61 | 314 | 1.0 | 0.0 | 0.00 | 0.00 | 0.00 | 75 | 1007.8 |
| 20260505200516 | 62 | 253 | 1.0 | 0.0 | 0.00 | 0.00 | 0.00 | 74 | 1007.7 |
| 20260505200016 | 62 | 238 | 1.0 | 0.0 | 0.00 | 0.00 | 0.00 | 74 | 1007.6 |
| 20260505195516 | 62 | 292 | 2.0 | 0.0 | 0.00 | 0.00 | 0.00 | 74 | 1007.6 |
| 20260505195017 | 62 | 147 | 1.0 | 0.0 | 0.00 | 0.00 | 0.00 | 74 | 1007.6 |
| 20260505194516 | 62 | 356 | 2.0 | 0.0 | 0.00 | 0.00 | 0.00 | 74 | 1007.3 |
| 20260505194016 | 62 | 310 | 3.0 | 0.0 | 0.00 | 0.00 | 0.00 | 74 | 1007.2 |
| 20260505193517 | 62 | 308 | 2.0 | 0.0 | 0.00 | 0.00 | 0.00 | 74 | 1007.3 |
| 20260505193016 | 62 | 318 | 2.0 | 0.0 | 0.00 | 0.00 | 0.00 | 75 | 1007.4 |
| 20260505192516 | 62 | 21 | 1.0 | 0.0 | 0.00 | 0.00 | 0.00 | 75 | 1007.5 |
| 20260505192016 | 62 | 290 | 2.0 | 0.0 | 0.00 | 0.00 | 0.00 | 75 | 1007.6 |
| 20260505191516 | 62 | 247 | 1.0 | 0.0 | 0.00 | 0.00 | 0.00 | 75 | 1007.6 |
| 20260505191016 | 62 | 260 | 3.0 | 0.0 | 0.00 | 0.00 | 0.00 | 74 | 1007.6 |
| 20260505190516 | 62 | 266 | 1.0 | 0.0 | 0.00 | 0.00 | 0.00 | 74 | 1007.6 |
| 20260505190016 | 62 | 228 | 1.0 | 0.0 | 0.00 | 0.00 | 0.00 | 74 | 1007.6 |
| 20260505185516 | 62 | 259 | 1.0 | 0.0 | 0.00 | 0.00 | 0.00 | 74 | 1007.6 |
| 20260505185017 | 63 | 332 | 1.0 | 0.0 | 0.00 | 0.00 | 0.00 | 74 | 1007.7 |
| 20260505184516 | 63 | 356 | 1.0 | 0.0 | 0.00 | 0.00 | 0.00 | 74 | 1007.7 |
| 20260505184016 | 63 | 339 | 2.0 | 0.0 | 0.00 | 0.00 | 0.00 | 74 | 1007.9 |
| 20260505183516 | 63 | 295 | 1.0 | 0.0 | 0.00 | 0.00 | 0.00 | 74 | 1007.9 |
| 20260505183016 | 63 | 321 | 2.0 | 0.0 | 0.00 | 0.00 | 0.00 | 73 | 1007.9 |
| 20260505182516 | 63 | 325 | 3.0 | 0.0 | 0.00 | 0.00 | 0.00 | 73 | 1007.8 |
| 20260505182016 | 63 | 304 | 2.0 | 0.0 | 0.00 | 0.00 | 0.00 | 73 | 1007.9 |
| 20260505181517 | 63 | 350 | 2.0 | 0.0 | 0.00 | 0.00 | 0.00 | 73 | 1007.9 |
| 20260505181016 | 63 | 234 | 0.0 | 0.0 | 0.00 | 0.00 | 0.00 | 73 | 1007.9 |
| 20260505180516 | 63 | 317 | 1.0 | 0.0 | 0.00 | 0.00 | 0.00 | 73 | 1007.9 |
| 20260505180016 | 64 | 1 | 1.0 | 0.0 | 0.00 | 0.00 | 0.00 | 72 | 1008.0 |
| 20260505175516 | 64 | 286 | 2.0 | 0.0 | 0.00 | 0.00 | 0.00 | 72 | 1008.0 |
| 20260505175016 | 64 | 336 | 1.0 | 0.0 | 0.00 | 0.00 | 0.00 | 71 | 1008.0 |
| 20260505174516 | 64 | 336 | 2.0 | 0.0 | 0.00 | 0.00 | 0.00 | 71 | 1008.1 |
| 20260505174016 | 64 | 326 | 0.0 | 0.0 | 0.00 | 0.00 | 0.00 | 70 | 1008.1 |
| 20260505173517 | 64 | 207 | 0.0 | 0.0 | 0.00 | 0.00 | 0.00 | 70 | 1008.1 |
| 20260505173016 | 65 | 318 | 1.0 | 0.0 | 0.00 | 0.00 | 0.00 | 69 | 1008.1 |
| 20260505172516 | 65 | 8 | 0.0 | 0.0 | 0.00 | 0.00 | 0.00 | 68 | 1008.1 |
| 20260505172016 | 65 | 264 | 0.0 | 0.0 | 0.00 | 0.00 | 0.00 | 68 | 1008.1 |
| 20260505171517 | 65 | 260 | 1.0 | 0.0 | 0.00 | 0.00 | 0.00 | 67 | 1008.1 |
| 20260505171016 | 65 | 174 | 1.0 | 0.0 | 0.00 | 0.00 | 0.00 | 67 | 1008.1 |
| 20260505170516 | 65 | 312 | 1.0 | 0.0 | 0.00 | 0.00 | 0.00 | 66 | 1008.1 |
| 20260505170016 | 66 | 317 | 1.0 | 0.0 | 0.00 | 0.00 | 0.00 | 66 | 1008.2 |
| 20260505165516 | 66 | 339 | 3.0 | 0.0 | 0.00 | 0.00 | 0.00 | 65 | 1008.3 |
| 20260505165017 | 66 | 294 | 4.0 | 0.0 | 0.00 | 0.00 | 0.00 | 64 | 1008.3 |
| 20260505164516 | 66 | 258 | 2.0 | 0.0 | 0.00 | 0.00 | 0.00 | 64 | 1008.3 |
| 20260505164017 | 66 | 204 | 1.0 | 0.0 | 0.00 | 0.00 | 0.00 | 65 | 1008.3 |
| 20260505163516 | 66 | 284 | 1.0 | 0.0 | 0.00 | 0.00 | 0.00 | 65 | 1008.3 |
| 20260505163016 | 66 | 299 | 3.0 | 0.0 | 0.00 | 0.00 | 0.00 | 65 | 1008.3 |
| 20260505162516 | 67 | 280 | 2.0 | 0.0 | 0.00 | 0.00 | 0.00 | 64 | 1008.4 |
| 20260505162016 | 67 | 228 | 2.0 | 0.0 | 0.00 | 0.00 | 0.00 | 63 | 1008.4 |
| 20260505161517 | 67 | 264 | 1.0 | 0.0 | 0.00 | 0.00 | 0.00 | 65 | 1008.4 |
| 20260505161016 | 67 | 278 | 1.0 | 0.0 | 0.00 | 0.00 | 0.00 | 65 | 1008.4 |
| 20260505160516 | 67 | 250 | 2.0 | 0.0 | 0.00 | 0.00 | 0.00 | 66 | 1008.4 |
| 20260505153016 | 67 | 15 | 1.0 | 0.0 | 0.00 | 0.00 | 0.00 | 65 | 1008.8 |
| 20260505152516 | 67 | 185 | 1.0 | 0.0 | 0.00 | 0.00 | 0.00 | 65 | 1008.9 |
| 20260505152016 | 67 | 228 | 1.0 | 0.0 | 0.00 | 0.00 | 0.00 | 65 | 1009.0 |
| 20260505151516 | 67 | 301 | 1.0 | 0.0 | 0.00 | 0.00 | 0.00 | 66 | 1008.9 |
| 20260505151016 | 67 | 296 | 2.0 | 0.0 | 0.00 | 0.00 | 0.00 | 65 | 1009.0 |
| 20260505150516 | 67 | 287 | 2.0 | 0.0 | 0.00 | 0.00 | 0.00 | 65 | 1009.1 |
| 20260505140516 | 68 | 344 | 3.0 | 0.0 | 0.00 | 0.00 | 0.00 | 65 | 1009.6 |
| 20260505125017 | 68 | 321 | 3.0 | 0.0 | 0.00 | 0.00 | 0.00 | 64 | 1010.2 |
| 20260505124516 | 68 | 352 | 4.0 | 0.0 | 0.00 | 0.00 | 0.00 | 63 | 1010.2 |
| 20260505124016 | 69 | 337 | 4.0 | 0.0 | 0.00 | 0.00 | 0.00 | 61 | 1010.2 |
| 20260505123516 | 69 | 17 | 1.0 | 0.0 | 0.00 | 0.00 | 0.00 | 63 | 1010.3 |
| 20260505123016 | 68 | 301 | 2.0 | 0.0 | 0.00 | 0.00 | 0.00 | 63 | 1010.3 |
| 20260505122516 | 68 | 191 | 1.0 | 0.0 | 0.00 | 0.00 | 0.00 | 61 | 1010.4 |
| 20260505122016 | 67 | 164 | 1.0 | 0.0 | 0.00 | 0.00 | 0.00 | 66 | 1010.4 |
| 20260505121516 | 67 | 253 | 1.0 | 0.0 | 0.00 | 0.00 | 0.00 | 68 | 1010.4 |
| 20260505121016 | 66 | 318 | 5.0 | 0.0 | 0.00 | 0.00 | 0.00 | 70 | 1010.4 |
| 20260505120516 | 66 | 327 | 1.0 | 0.0 | 0.00 | 0.00 | 0.00 | 71 | 1010.4 |
| 20260505120016 | 66 | 299 | 3.0 | 0.0 | 0.00 | 0.00 | 0.00 | 70 | 1010.5 |
| 20260505115516 | 66 | 290 | 0.0 | 0.0 | 0.00 | 0.00 | 0.00 | 70 | 1010.6 |
| 20260505115016 | 65 | 312 | 2.0 | 0.0 | 0.00 | 0.00 | 0.00 | 73 | 1010.6 |
| 20260505114516 | 65 | 160 | 0.0 | 0.0 | 0.00 | 0.00 | 0.00 | 76 | 1010.6 |
| 20260505114016 | 65 | 341 | 2.0 | 0.0 | 0.00 | 0.00 | 0.00 | 76 | 1010.6 |
| 20260505113516 | 64 | 343 | 2.0 | 0.0 | 0.00 | 0.00 | 0.00 | 76 | 1010.6 |
| 20260505113016 | 64 | 334 | 2.0 | 0.0 | 0.00 | 0.00 | 0.00 | 76 | 1010.6 |
| 20260505112516 | 64 | 290 | 2.0 | 0.0 | 0.00 | 0.00 | 0.00 | 77 | 1010.6 |
| 20260505112016 | 63 | 285 | 1.0 | 0.0 | 0.00 | 0.00 | 0.00 | 77 | 1010.7 |
| 20260505111516 | 63 | 323 | 3.0 | 0.0 | 0.00 | 0.00 | 0.00 | 78 | 1010.7 |
| 20260505111016 | 63 | 331 | 2.0 | 0.0 | 0.00 | 0.00 | 0.00 | 77 | 1010.7 |
| 20260505110516 | 63 | 306 | 4.0 | 0.0 | 0.00 | 0.00 | 0.00 | 78 | 1010.8 |
| 20260505102016 | 63 | 337 | 2.0 | 0.0 | 0.00 | 0.00 | 0.00 | 81 | 1011.2 |
| 20260505101516 | 63 | 285 | 2.0 | 0.0 | 0.00 | 0.00 | 0.00 | 80 | 1011.4 |
| 20260505101016 | 63 | 320 | 1.0 | 0.0 | 0.00 | 0.00 | 0.00 | 81 | 1011.3 |
| 20260505100516 | 63 | 281 | 1.0 | 0.0 | 0.00 | 0.00 | 0.00 | 81 | 1011.4 |
| 20260505100016 | 62 | 105 | 0.0 | 0.0 | 0.00 | 0.00 | 0.00 | 82 | 1011.3 |
| 20260505095516 | 63 | 311 | 0.0 | 0.0 | 0.00 | 0.00 | 0.00 | 81 | 1011.3 |
| 20260505095016 | 62 | 156 | 1.0 | 0.0 | 0.00 | 0.00 | 0.00 | 83 | 1011.3 |
| 20260505094516 | 62 | 160 | 1.0 | 0.0 | 0.00 | 0.00 | 0.00 | 84 | 1011.3 |
| 20260505094016 | 62 | 190 | 2.0 | 0.0 | 0.00 | 0.00 | 0.00 | 84 | 1011.4 |
| 20260505093516 | 62 | 144 | 2.0 | 0.0 | 0.00 | 0.00 | 0.00 | 84 | 1011.5 |
| 20260505093016 | 62 | 141 | 1.0 | 0.0 | 0.00 | 0.00 | 0.00 | 81 | 1011.5 |
| 20260505092516 | 61 | 159 | 1.0 | 0.0 | 0.00 | 0.00 | 0.00 | 82 | 1011.5 |
| 20260505092016 | 61 | 306 | 1.0 | 0.0 | 0.00 | 0.00 | 0.00 | 84 | 1011.5 |
| 20260505091516 | 61 | 304 | 1.0 | 0.0 | 0.00 | 0.00 | 0.00 | 85 | 1011.4 |
| 20260505091016 | 61 | 75 | 0.0 | 0.0 | 0.00 | 0.00 | 0.00 | 84 | 1011.4 |
| 20260505090516 | 61 | 312 | 1.0 | 0.0 | 0.00 | 0.00 | 0.00 | 84 | 1011.4 |
| 20260505090016 | 60 | 325 | 2.0 | 0.0 | 0.00 | 0.00 | 0.00 | 85 | 1011.4 |
| 20260505085516 | 60 | 6 | 1.0 | 0.0 | 0.00 | 0.00 | 0.00 | 85 | 1011.4 |
| 20260505085016 | 60 | 306 | 1.0 | 0.0 | 0.00 | 0.00 | 0.00 | 85 | 1011.5 |
| 20260505084516 | 60 | 342 | 1.0 | 0.0 | 0.00 | 0.00 | 0.00 | 85 | 1011.5 |
| 20260505084016 | 60 | 184 | 1.0 | 0.0 | 0.00 | 0.00 | 0.00 | 86 | 1011.5 |
| 20260505083516 | 60 | 168 | 0.0 | 0.0 | 0.00 | 0.00 | 0.00 | 87 | 1011.4 |
| 20260505083016 | 60 | 175 | 0.0 | 0.0 | 0.00 | 0.00 | 0.00 | 86 | 1011.3 |
| 20260505082516 | 60 | 175 | 1.0 | 0.0 | 0.00 | 0.00 | 0.00 | 87 | 1011.3 |
| 20260505082016 | 59 | 172 | 2.0 | 0.0 | 0.00 | 0.00 | 0.00 | 88 | 1011.2 |
| 20260505081516 | 59 | 116 | 1.0 | 0.0 | 0.00 | 0.00 | 0.00 | 89 | 1011.2 |
| 20260505081016 | 59 | 24 | 1.0 | 0.0 | 0.00 | 0.00 | 0.00 | 88 | 1011.1 |
| 20260505080516 | 59 | 303 | 1.0 | 0.0 | 0.00 | 0.00 | 0.00 | 89 | 1011.1 |
| 20260505080016 | 59 | 329 | 1.0 | 0.0 | 0.00 | 0.00 | 0.00 | 89 | 1011.0 |
| 20260505075516 | 59 | 235 | 1.0 | 0.0 | 0.00 | 0.00 | 0.00 | 90 | 1010.9 |
| 20260505075016 | 58 | 294 | 1.0 | 0.0 | 0.00 | 0.00 | 0.00 | 90 | 1011.0 |
| 20260505074516 | 58 | 264 | 1.0 | 0.0 | 0.00 | 0.00 | 0.00 | 91 | 1010.9 |
| 20260505074016 | 58 | 322 | 1.0 | 0.0 | 0.00 | 0.00 | 0.00 | 92 | 1011.0 |
| 20260505073516 | 58 | 302 | 1.0 | 0.0 | 0.00 | 0.00 | 0.00 | 92 | 1011.1 |
| 20260505073016 | 57 | 316 | 2.0 | 0.0 | 0.00 | 0.00 | 0.00 | 92 | 1011.1 |
| 20260505072516 | 57 | 310 | 0.0 | 0.0 | 0.00 | 0.00 | 0.00 | 92 | 1011.2 |
| 20260505072016 | 57 | 339 | 2.0 | 0.0 | 0.00 | 0.00 | 0.00 | 92 | 1011.2 |
| 20260505071516 | 57 | 16 | 0.0 | 0.0 | 0.00 | 0.00 | 0.00 | 92 | 1011.2 |
| 20260505071016 | 57 | 331 | 2.0 | 0.0 | 0.00 | 0.00 | 0.00 | 92 | 1011.2 |
| 20260505070516 | 57 | 312 | 3.0 | 0.0 | 0.00 | 0.00 | 0.00 | 92 | 1011.3 |
| 20260505070016 | 57 | 319 | 2.0 | 0.0 | 0.00 | 0.00 | 0.00 | 91 | 1011.3 |
| 20260505065516 | 57 | 331 | 2.0 | 0.0 | 0.00 | 0.00 | 0.00 | 91 | 1011.4 |
| 20260505065016 | 57 | 327 | 1.0 | 0.0 | 0.00 | 0.00 | 0.00 | 91 | 1011.4 |
| 20260505064516 | 57 | 332 | 1.0 | 0.0 | 0.00 | 0.00 | 0.00 | 90 | 1011.4 |
| 20260505064016 | 57 | 356 | 1.0 | 0.0 | 0.00 | 0.00 | 0.00 | 90 | 1011.4 |
| 20260505063516 | 57 | 329 | 2.0 | 0.0 | 0.00 | 0.00 | 0.00 | 89 | 1011.5 |
| 20260505063016 | 57 | 302 | 1.0 | 0.0 | 0.00 | 0.00 | 0.00 | 90 | 1011.5 |
| 20260505062516 | 57 | 184 | 1.0 | 0.0 | 0.00 | 0.00 | 0.00 | 89 | 1011.5 |
| 20260505062016 | 57 | 312 | 0.0 | 0.0 | 0.00 | 0.00 | 0.00 | 91 | 1011.6 |
| 20260505061516 | 57 | 174 | 1.0 | 0.0 | 0.00 | 0.00 | 0.00 | 91 | 1011.6 |
| 20260505061016 | 57 | 1 | 1.0 | 0.0 | 0.00 | 0.00 | 0.00 | 91 | 1011.6 |
| 20260505060516 | 57 | 13 | 1.0 | 0.0 | 0.00 | 0.00 | 0.00 | 91 | 1011.6 |
| 20260505060016 | 56 | 189 | 2.0 | 0.0 | 0.00 | 0.00 | 0.00 | 92 | 1011.6 |
| 20260505055516 | 56 | 130 | 1.0 | 0.0 | 0.00 | 0.00 | 0.00 | 92 | 1011.7 |
| 20260505055016 | 56 | 151 | 0.0 | 0.0 | 0.00 | 0.00 | 0.00 | 93 | 1011.7 |
| 20260505054516 | 56 | 164 | 2.0 | 0.0 | 0.00 | 0.00 | 0.00 | 92 | 1011.8 |
| 20260505054016 | 56 | 124 | 1.0 | 0.0 | 0.00 | 0.00 | 0.00 | 92 | 1011.7 |
| 20260505053516 | 56 | 159 | 2.0 | 0.0 | 0.00 | 0.00 | 0.00 | 92 | 1011.7 |
| 20260505053016 | 56 | 359 | 1.0 | 0.0 | 0.00 | 0.00 | 0.00 | 91 | 1011.6 |
| 20260505052516 | 56 | 4 | 0.0 | 0.0 | 0.00 | 0.00 | 0.00 | 92 | 1011.6 |
| 20260505052016 | 56 | 50 | 0.0 | 0.0 | 0.00 | 0.00 | 0.00 | 92 | 1011.7 |
| 20260505051516 | 56 | 78 | 0.0 | 0.0 | 0.00 | 0.00 | 0.00 | 92 | 1011.7 |
| 20260505051016 | 56 | 315 | 0.0 | 0.0 | 0.00 | 0.00 | 0.00 | 92 | 1011.7 |
| 20260505050516 | 56 | 66 | 1.0 | 0.0 | 0.00 | 0.00 | 0.00 | 92 | 1011.6 |
| 20260505041516 | 56 | 292 | 1.0 | 0.0 | 0.00 | 0.00 | 0.00 | 91 | 1011.8 |
| 20260505041016 | 56 | 151 | 1.0 | 0.0 | 0.00 | 0.00 | 0.00 | 91 | 1011.9 |
| 20260505040516 | 56 | 84 | 0.0 | 0.0 | 0.00 | 0.00 | 0.00 | 92 | 1011.9 |
| 20260505040016 | 56 | 12 | 0.0 | 0.0 | 0.00 | 0.00 | 0.00 | 91 | 1012.0 |
| 20260505035516 | 56 | 0 | 0.0 | 0.0 | 0.00 | 0.00 | 0.00 | 92 | 1011.9 |
| 20260505035016 | 56 | 345 | 1.0 | 0.0 | 0.00 | 0.00 | 0.00 | 92 | 1011.8 |
| 20260505034516 | 56 | 324 | 0.0 | 0.0 | 0.00 | 0.00 | 0.00 | 92 | 1011.9 |
| 20260505034016 | 56 | 319 | 1.0 | 0.0 | 0.00 | 0.00 | 0.00 | 92 | 1011.8 |
| 20260505033516 | 56 | 325 | 1.0 | 0.0 | 0.00 | 0.00 | 0.00 | 92 | 1011.9 |
| 20260505033016 | 56 | 316 | 1.0 | 0.0 | 0.00 | 0.00 | 0.00 | 92 | 1011.9 |
| 20260505032516 | 56 | 328 | 1.0 | 0.0 | 0.00 | 0.00 | 0.00 | 92 | 1012.0 |
| 20260505032016 | 56 | 347 | 2.0 | 0.0 | 0.00 | 0.00 | 0.00 | 92 | 1012.1 |
| 20260505031516 | 56 | 81 | 0.0 | 0.0 | 0.00 | 0.00 | 0.00 | 92 | 1012.1 |
| 20260505031016 | 56 | 321 | 1.0 | 0.0 | 0.00 | 0.00 | 0.00 | 92 | 1012.1 |
| 20260505030516 | 56 | 314 | 1.0 | 0.0 | 0.00 | 0.00 | 0.00 | 92 | 1012.1 |
| 20260505030016 | 56 | 18 | 1.0 | 0.0 | 0.00 | 0.00 | 0.00 | 92 | 1012.1 |
| 20260505025516 | 56 | 282 | 1.0 | 0.0 | 0.00 | 0.00 | 0.00 | 92 | 1012.0 |
| 20260505025016 | 56 | 334 | 2.0 | 0.0 | 0.00 | 0.00 | 0.00 | 92 | 1012.1 |
| 20260505024516 | 56 | 298 | 2.0 | 0.0 | 0.00 | 0.00 | 0.00 | 91 | 1012.1 |
| 20260505024016 | 56 | 322 | 2.0 | 0.0 | 0.00 | 0.00 | 0.00 | 91 | 1012.2 |
| 20260505023516 | 56 | 324 | 2.0 | 0.0 | 0.00 | 0.00 | 0.00 | 91 | 1012.2 |
| 20260505023016 | 56 | 298 | 3.0 | 0.0 | 0.00 | 0.00 | 0.00 | 90 | 1012.3 |
| 20260505022516 | 56 | 285 | 2.0 | 0.0 | 0.00 | 0.00 | 0.00 | 90 | 1012.2 |
| 20260505022016 | 56 | 313 | 1.0 | 0.0 | 0.00 | 0.00 | 0.00 | 90 | 1012.3 |
| 20260505021516 | 56 | 266 | 2.0 | 0.0 | 0.00 | 0.00 | 0.00 | 90 | 1012.3 |
| 20260505021016 | 56 | 315 | 1.0 | 0.0 | 0.00 | 0.00 | 0.00 | 90 | 1012.3 |
| 20260505020516 | 56 | 320 | 1.0 | 0.0 | 0.00 | 0.00 | 0.00 | 90 | 1012.3 |
| 20260505020016 | 56 | 48 | 0.0 | 0.0 | 0.00 | 0.00 | 0.00 | 90 | 1012.3 |
| 20260505015516 | 56 | 359 | 1.0 | 0.0 | 0.00 | 0.00 | 0.00 | 90 | 1012.4 |
| 20260505015016 | 56 | 318 | 0.0 | 0.0 | 0.00 | 0.00 | 0.00 | 90 | 1012.4 |
| 20260505014516 | 56 | 318 | 1.0 | 0.0 | 0.00 | 0.00 | 0.00 | 89 | 1012.5 |
| 20260505014016 | 57 | 316 | 1.0 | 0.0 | 0.00 | 0.00 | 0.00 | 89 | 1012.5 |